Flag for Jordan Weather past 2 weeks in Amman, Jordan

Now
54 °F

Haze.


Feels Like: 52 °F
Forecast: 47 / 62 °F
Wind: 7 mph from West

Location: Amman Airport

Current Time: Mar 30, 2015 at 6:04:17 AM

Latest Report: Mar 30, 2015 at 5:00 AM


Visibility: 3 mi

Pressure: 29.92 "Hg

Humidity: 58%

Dew point: 39 °F

Location of AmmanLocation

Historic Weather in Amman — Graph

°F

Amman temperature yesterday

Maximum temperature yesterday: 70 °F (at 2:00 PM)
Minimum temperature yesterday: 57 °F (at 2:00 AM)
Average temperature yesterday: 62 °F

Past Weeks' High & Low Weather Summary

 TemperatureHumidityPressure
High77 °F (Mar 27, 4:00 PM)93% (Mar 23, 4:00 AM)30.18 "Hg (Mar 23, 4:00 AM)
Low39 °F (Mar 23, 5:00 AM)13% (Mar 24, 10:00 AM)29.83 "Hg (Mar 29, 2:00 PM)
Average56 °F55%30.03 "Hg
* Reported Mar 15 3:00 AM — Mar 30 4:00 AM, Amman, Weather by CustomWeather, © 2015

Note: Actual official high and low records may vary slightly from our data, if they occured in-between our weather recording intervals... More about our weather records

Advertising

Amman weather history for previous 24 hours

 ConditionsComfort  
Time TempWeatherWind HumidityBarometerVisibility
4:00 AM
Mon, Mar 30
52 °FHaze.7 mph62%29.92 "Hg3 mi
3:00 AM54 °FHaze.5 mph63%29.92 "Hg3 mi
2:00 AM52 °FHaze.No wind77%29.92 "Hg3 mi
1:00 AM52 °FHaze.No wind82%29.92 "Hg3 mi
12:00 AM54 °FHaze.No wind72%29.92 "Hg3 mi
10:00 PM
Sun, Mar 29
57 °FHaze.9 mph59%29.89 "Hg3 mi
9:00 PM57 °FHaze.10 mph67%29.89 "Hg3 mi
8:00 PM59 °FHaze.10 mph68%29.89 "Hg3 mi
7:00 PM63 °FHaze.12 mph59%29.86 "Hg3 mi
6:00 PM64 °FScattered clouds.13 mph68%29.83 "Hg2 mi
5:00 PM66 °FScattered clouds.16 mph64%29.83 "Hg2 mi
4:00 PM70 °FHaze.15 mph60%29.83 "Hg2 mi
3:00 PM68 °FHaze.13 mph64%29.83 "Hg2 mi
2:00 PM70 °FScattered clouds.7 mph60%29.83 "Hg1 mi
1:00 PM66 °FRain showers. Scattered clouds.7 mph68%29.86 "Hg2 mi
12:00 PM66 °FRain showers. Scattered clouds.9 mph68%29.86 "Hg2 mi
11:00 AM64 °FLight rain. Scattered clouds.6 mph73%29.89 "Hg3 mi
10:00 AM64 °FPartly sunny.6 mph73%29.86 "Hg3 mi
9:00 AM63 °FScattered clouds.3 mph77%29.86 "Hg3 mi
8:00 AM57 °FSprinkles. Scattered clouds.No wind88%29.86 "Hg2 mi
7:00 AM57 °FHaze.No wind82%29.86 "Hg3 mi
6:00 AM57 °FHaze.No wind82%29.86 "Hg3 mi
Weather by CustomWeather, © 2015

See weather overviewHow to use our weather pages